Middletown, RI

4:17 PM EDT on September 28, 2016 (GMT -0400)
Newport State

Weather History for KUUU - December, 2013

Change the Weather History Date:

Monday, December 9, 2013

  Actual Average Record
Temperature  
Mean Temperature 36 °F -  
Max Temperature 43 °F 45 °F 65 °F (1991)
Min Temperature 28 °F 30 °F 13 °F (1960)
Degree Days  
Heating Degree Days 30    
Moisture  
Dew Point 33 °F    
Average Humidity 92    
Maximum Humidity 100    
Minimum Humidity 75    
Precipitation  
Precipitation 0.02 in - - ()
Sea Level Pressure  
Sea Level Pressure 30.16 in    
Wind  
Wind Speed 9 mph (NE)    
Max Wind Speed 15 mph    
Max Gust Speed 25 mph    
Visibility 4 miles    
Events Fog , Rain , Snow    
Averages and records for this station are not official NWS values.
T = Trace of Precipitation, MM = Missing Value Source: NWS Daily Summary

Daily Weather History Graph

Daily Weather History Graph

Search for Another Location

Airport or City:

Trip Planner

Search our weather history database for the weather conditions in past years. The results will help you decide how hot, cold, wet, or windy it might be!

Date:

Astronomy

Dec. 09, 2013 Rise Set
Actual Time 7:00 AM EST 4:15 PM EST
Civil Twilight 6:28 AM EST 4:46 PM EST
Nautical Twilight 5:54 AM EST 5:21 PM EST
Astronomical Twilight 5:20 AM EST 5:54 PM EST
Moon 11:47 AM EST (12/9) No Moon Set
Length of Visible Light 10h 17m
Length of Day
9h 15m
Waxing Crescent, 51% of the Moon is Illuminated
Dec 9
Waxing Crescent
Dec 17
Full
Dec 25
Last Quarter
Jan 1
New
Jan 7
First Quarter

Hourly Weather History & Observations

Time (EST) Temp. Windchill Dew Point Humidity Pressure Visibility Wind Dir Wind Speed Gust Speed Precip Events Conditions
12:44 AM 28.9 °F 20.4 °F 21.9 °F 75% 30.44 in 4.0 mi NE 9.2 mph - 0.00 in Snow Light Snow
12:53 AM 28.9 °F 20.4 °F 23.0 °F 78% 30.44 in 2.5 mi NE 9.2 mph - 0.00 in Snow Light Snow
1:02 AM 28.0 °F 18.6 °F 23.0 °F 81% 30.44 in 1.5 mi NNE 10.4 mph - 0.00 in Snow Light Snow
1:15 AM 28.0 °F 18.6 °F 23.0 °F 81% 30.43 in 2.5 mi NE 10.4 mph - 0.00 in Snow Light Snow
1:49 AM 28.4 °F 19.7 °F 24.8 °F 86% 30.41 in 1.5 mi NE 9.2 mph - 0.00 in Snow Light Snow
1:53 AM 28.0 °F 20.0 °F 24.1 °F 85% 30.42 in 1.8 mi NE 8.1 mph - 0.00 in Snow Light Snow
2:04 AM 28.0 °F 20.0 °F 25.0 °F 88% 30.41 in 1.8 mi NE 8.1 mph - 0.00 in Snow Light Snow
2:12 AM 28.0 °F 18.6 °F 25.0 °F 88% 30.41 in 2.0 mi NE 10.4 mph - 0.00 in Snow Light Snow
2:26 AM 28.0 °F 19.3 °F 26.1 °F 92% 30.41 in 3.0 mi NE 9.2 mph - 0.00 in Rain Light Freezing Rain
2:38 AM 28.9 °F 19.2 °F 26.1 °F 89% 30.40 in 2.5 mi NE 11.5 mph - 0.00 in Rain Light Freezing Rain
2:51 AM 28.4 °F 19.7 °F 26.6 °F 93% 30.40 in 2.0 mi NE 9.2 mph - 0.00 in Rain Light Freezing Rain
2:53 AM 28.9 °F 20.4 °F 26.1 °F 89% 30.40 in 2.0 mi NE 9.2 mph - 0.00 in Rain Light Freezing Rain
3:41 AM 28.9 °F 19.2 °F 27.0 °F 92% 30.36 in 1.8 mi NE 11.5 mph - 0.00 in Rain Light Freezing Rain
3:48 AM 28.4 °F 19.7 °F 26.6 °F 93% 30.36 in 1.5 mi NE 9.2 mph - 0.00 in Snow Light Snow
3:53 AM 28.9 °F 19.2 °F 27.0 °F 92% 30.36 in 1.8 mi NE 11.5 mph - 0.00 in Snow Light Snow
4:03 AM 30.0 °F 20.5 °F 27.0 °F 88% 30.35 in 3.0 mi NE 11.5 mph - 0.00 in   Overcast
4:31 AM 30.9 °F 21.7 °F 28.0 °F 89% 30.34 in 4.0 mi NE 11.5 mph - 0.00 in Rain Light Freezing Rain
4:53 AM 30.9 °F 20.7 °F 28.9 °F 92% 30.33 in 4.0 mi ENE 13.8 mph - 0.00 in Rain Light Freezing Rain
5:16 AM 30.9 °F 22.2 °F 28.9 °F 92% 30.31 in 10.0 mi ENE 10.4 mph - 0.00 in   Overcast
5:35 AM 30.9 °F 23.5 °F 28.9 °F 92% 30.30 in 6.0 mi ENE 8.1 mph - 0.00 in Rain Light Freezing Rain
5:53 AM 32.0 °F 24.2 °F 30.0 °F 92% 30.29 in 3.0 mi ENE 9.2 mph - 0.00 in Rain Light Freezing Rain
6:42 AM 33.1 °F 25.5 °F 30.9 °F 92% 30.27 in 6.0 mi ENE 9.2 mph - 0.00 in   Overcast
6:53 AM 33.1 °F 26.1 °F 30.9 °F 92% 30.26 in 4.0 mi East 8.1 mph - 0.00 in Rain Light Rain
7:15 AM 33.1 °F 25.5 °F 30.9 °F 92% 30.24 in 2.5 mi East 9.2 mph - 0.00 in Rain Light Rain
7:29 AM 33.1 °F 24.9 °F 30.9 °F 92% 30.22 in 4.0 mi East 10.4 mph - 0.00 in Rain Light Rain
7:44 AM 33.1 °F 24.4 °F 32.0 °F 96% 30.20 in 2.5 mi East 11.5 mph - 0.00 in Rain Light Rain
7:53 AM 34.0 °F 28.0 °F 32.0 °F 92% 30.20 in 3.0 mi ENE 6.9 mph - 0.00 in Rain Light Rain
8:27 AM 36.0 °F 28.0 °F 34.0 °F 93% 30.17 in 5.0 mi East 11.5 mph 18.4 mph 0.00 in Rain Light Rain
8:53 AM 37.0 °F 28.1 °F 35.1 °F 93% 30.16 in 5.0 mi East 15.0 mph 25.3 mph 0.00 in Rain Light Rain
9:31 AM 37.9 °F 30.0 °F 36.0 °F 93% 30.14 in 3.0 mi East 12.7 mph 21.9 mph 0.00 in Rain Light Rain
9:36 AM 37.9 °F 30.0 °F 36.0 °F 93% 30.14 in 1.8 mi East 12.7 mph 21.9 mph 0.00 in Rain Light Rain
9:53 AM 37.9 °F 31.5 °F 37.0 °F 97% 30.15 in 1.2 mi East 9.2 mph - 0.00 in Rain Light Rain
10:29 AM 39.0 °F 33.4 °F 37.9 °F 96% 30.14 in 2.5 mi East 8.1 mph - 0.02 in Rain Light Rain
10:41 AM 39.0 °F 32.8 °F 37.9 °F 96% 30.12 in 3.0 mi East 9.2 mph - 0.02 in Rain Light Rain
10:53 AM 39.9 °F 34.5 °F 37.9 °F 93% 30.12 in 3.0 mi East 8.1 mph - 0.02 in Rain Light Rain
11:12 AM 39.9 °F 34.5 °F 39.0 °F 97% 30.10 in 2.5 mi East 8.1 mph - 0.00 in   Overcast
11:24 AM 39.9 °F 35.8 °F 39.0 °F 97% 30.09 in 1.5 mi ENE 5.8 mph - 0.00 in   Overcast
11:41 AM 39.9 °F 35.1 °F 39.0 °F 97% 30.06 in 1.2 mi East 6.9 mph - 0.00 in   Overcast
11:53 AM 39.9 °F 35.8 °F 39.0 °F 97% 30.05 in 1.2 mi ENE 5.8 mph - 0.00 in   Overcast
12:53 PM 42.1 °F 37.7 °F 39.9 °F 92% 30.00 in 1.2 mi ENE 6.9 mph - 0.00 in   Overcast
1:53 PM 43.0 °F 38.8 °F 41.0 °F 93% 29.93 in 1.5 mi East 6.9 mph - N/A   Overcast
2:53 PM 43.0 °F 38.8 °F 42.1 °F 97% 29.91 in 0.8 mi North 6.9 mph - N/A   Overcast
3:53 PM 39.9 °F 33.9 °F 39.0 °F 97% 29.92 in 0.8 mi NNW 9.2 mph - N/A   Overcast
4:04 PM 39.9 °F 33.9 °F 39.0 °F 97% 29.91 in 1.0 mi NNW 9.2 mph - N/A   Overcast
4:43 PM 39.9 °F 35.1 °F 39.0 °F 97% 29.90 in 2.0 mi NNW 6.9 mph - N/A   Overcast
4:53 PM 39.0 °F 34.0 °F 39.0 °F 100% 29.90 in 2.5 mi NNW 6.9 mph - N/A   Overcast
5:31 PM 39.9 °F 35.1 °F 39.0 °F 97% 29.90 in 1.5 mi NW 6.9 mph - N/A   Overcast
5:53 PM 39.9 °F 35.1 °F 39.0 °F 97% 29.90 in 0.8 mi WNW 6.9 mph - N/A   Overcast
6:53 PM 39.0 °F 34.8 °F 39.0 °F 100% 29.90 in 0.5 mi West 5.8 mph - N/A Fog Fog
7:26 PM 39.9 °F 35.8 °F 39.0 °F 97% 29.90 in 2.0 mi West 5.8 mph - N/A   Overcast
7:42 PM 39.9 °F 35.8 °F 39.9 °F 100% 29.91 in 3.0 mi West 5.8 mph - N/A   Overcast
7:53 PM 39.9 °F 35.8 °F 39.9 °F 100% 29.92 in 3.0 mi Variable 5.8 mph - N/A   Overcast
8:40 PM 39.9 °F 34.5 °F 37.9 °F 93% 29.92 in 10.0 mi West 8.1 mph - N/A   Overcast
8:53 PM 39.9 °F 34.5 °F 37.9 °F 93% 29.92 in 10.0 mi West 8.1 mph 19.6 mph N/A   Overcast
9:42 PM 39.0 °F 31.4 °F 37.0 °F 93% 29.93 in 10.0 mi West 12.7 mph 17.3 mph N/A   Overcast
9:53 PM 39.0 °F 31.8 °F 36.0 °F 89% 29.93 in 10.0 mi West 11.5 mph 18.4 mph N/A   Overcast
10:53 PM 37.0 °F 30.4 °F 34.0 °F 89% 29.94 in 10.0 mi West 9.2 mph 18.4 mph N/A   Overcast
11:37 PM 36.0 °F 29.6 °F 33.1 °F 89% 29.92 in 10.0 mi West 8.1 mph - N/A   Mostly Cloudy
11:53 PM 36.0 °F 29.6 °F 33.1 °F 89% 29.93 in 10.0 mi West 8.1 mph - N/A   Scattered Clouds